N724JS NTTB-NSTU

Flight info

Callsign N724JS
Flight time N/A
Altitude 43000
Route RUTIX1A RUTIX DCT OPERU G224 TUT H969 CLAIB
Aircraft GLF6/M-SBDE2E3FGHIJ4J5M1RWXY/LB1D1

Departure

Time 2026-04-24 15:42
Airport Bora Bora Airport (NTTB)

Arrival

Time N/A
Airport Pago Pago International Airport (NSTU)
Time Latitude Longitude Altitude Speed Heading
2026-04-24 15:39 -16.44074 -151.75673 63 ft 0 kts 124°
2026-04-24 15:42 -16.44132 -151.75586 63 ft 51 kts 124°
2026-04-24 15:42 -16.44528 -151.74983 62 ft 148 kts 124°
2026-04-24 15:42 -16.45178 -151.74026 1032 ft 166 kts 126°
2026-04-24 15:43 -16.45704 -151.73305 2298 ft 124 kts 127°
2026-04-24 15:43 -16.46410 -151.72343 2129 ft 198 kts 127°
2026-04-24 15:43 -16.47241 -151.71248 3372 ft 194 kts 129°
2026-04-24 15:43 -16.48110 -151.70123 4284 ft 216 kts 129°
2026-04-24 15:44 -16.49078 -151.68870 5284 ft 235 kts 129°
2026-04-24 15:44 -16.50361 -151.67690 5838 ft 271 kts 155°
2026-04-24 15:44 -16.52258 -151.67447 7000 ft 279 kts 184°
2026-04-24 15:44 -16.54170 -151.67537 8289 ft 282 kts 182°
2026-04-24 15:45 -16.56129 -151.67592 9359 ft 290 kts 181°
2026-04-24 15:45 -16.58157 -151.67644 10451 ft 297 kts 184°
2026-04-24 15:45 -16.60279 -151.68294 10431 ft 344 kts 211°
2026-04-24 15:45 -16.61962 -151.70145 11146 ft 362 kts 242°
2026-04-24 15:46 -16.62613 -151.72643 12325 ft 366 kts 266°
2026-04-24 15:46 -16.62449 -151.75302 13233 ft 375 kts 274°
2026-04-24 15:46 -16.62328 -151.77998 14235 ft 380 kts 270°
2026-04-24 15:46 -16.62298 -151.80763 15289 ft 384 kts 269°
2026-04-24 15:47 -16.62310 -151.83531 16272 ft 390 kts 268°
2026-04-24 15:47 -16.62340 -151.86366 17247 ft 395 kts 268°
2026-04-24 15:47 -16.62378 -151.89210 18194 ft 401 kts 268°
2026-04-24 15:47 -16.62418 -151.92129 19133 ft 407 kts 267°
2026-04-24 15:48 -16.62461 -151.95082 20072 ft 414 kts 267°
2026-04-24 15:48 -16.62504 -151.98082 21018 ft 420 kts 266°
2026-04-24 15:48 -16.62548 -152.01167 21952 ft 427 kts 266°
2026-04-24 15:48 -16.62592 -152.04228 22890 ft 433 kts 266°
2026-04-24 15:49 -16.62636 -152.07378 23883 ft 438 kts 266°
2026-04-24 15:49 -16.62680 -152.10567 24847 ft 445 kts 266°
2026-04-24 15:49 -16.62724 -152.13814 25859 ft 450 kts 266°
2026-04-24 15:49 -16.62768 -152.17046 26817 ft 455 kts 266°
2026-04-24 15:50 -16.62813 -152.20363 27678 ft 461 kts 266°
2026-04-24 15:50 -16.62857 -152.23717 28573 ft 466 kts 267°
2026-04-24 15:50 -16.62899 -152.27063 29399 ft 471 kts 266°
2026-04-24 15:50 -16.62944 -152.30512 30188 ft 477 kts 266°
2026-04-24 15:51 -16.62988 -152.33952 30994 ft 481 kts 266°
2026-04-24 15:51 -16.63030 -152.37411 32110 ft 478 kts 266°
2026-04-24 15:51 -16.63072 -152.40851 33222 ft 474 kts 266°
2026-04-24 15:51 -16.63114 -152.44244 34323 ft 471 kts 265°
2026-04-24 15:52 -16.63154 -152.47600 35420 ft 466 kts 265°
2026-04-24 15:52 -16.63194 -152.50960 36422 ft 463 kts 265°
2026-04-24 15:52 -16.63234 -152.54341 37285 ft 463 kts 265°
2026-04-24 15:52 -16.63273 -152.57669 38188 ft 460 kts 265°
2026-04-24 15:53 -16.63312 -152.61035 39019 ft 459 kts 265°
2026-04-24 15:53 -16.63349 -152.64371 39950 ft 456 kts 265°
2026-04-24 15:53 -16.63385 -152.67639 40956 ft 452 kts 265°
2026-04-24 15:53 -16.63420 -152.70897 41924 ft 449 kts 265°
2026-04-24 15:54 -16.63455 -152.74126 42800 ft 446 kts 265°
2026-04-24 15:54 -16.63492 -152.77411 42888 ft 458 kts 265°
2026-04-24 15:54 -16.63528 -152.80756 42945 ft 469 kts 265°
2026-04-24 15:54 -16.63563 -152.84164 42932 ft 481 kts 265°
2026-04-24 15:55 -16.63633 -152.91237 42926 ft 496 kts 265°
2026-04-24 15:55 -16.63702 -152.98462 42928 ft 501 kts 266°